User: anonymous   Login
Location: Dugenta
(41.1333°N, 14.4500°E)
Time: 20:35:13
(UTC+00:00)
Language:

Cosmos 1503 Rocket - Orbit

View from above orbital plane
View from above orbital plane
View from above satellite
View from above satellite

Ground track
Ground track

The orbit data is extracted from the following two-line orbital elements,

1 14402U 83103B   21136.45623284  .00000008  00000-0  11868-4 0  9999
2 14402  74.0440 151.3934 0026931 358.1105   1.9941 14.36014050967192
Epoch (UTC): 16 May 2021 10:56:58
Eccentricity: 0.0026931
inclination: 74.0440°
perigee height: 752 km
apogee height: 791 km
right ascension of ascending node: 151.3934°
argument of perigee: 358.1105°
revolutions per day: 14.36014050
mean anomaly at epoch: 1.9941°
orbit number at epoch: 96719

The dashed part of the orbit path shows where the satellite is in the earth's shadow,  

DLR